Content
SEND FEEDBACK

Daily
Averages
Monthly
Summary
United States of America

GRAND MARAIS, MINNESOTA


Home > North America > United States > Minnesota
Elevation: 1818 feet     Latitude: 48 05N     Longitude: 090 46W

WEATHER
 
SELECT A DAY
Number of Records: 134,489;   Date Range: 7/30/98 - 8/12/14
 
SHARE

PRINT THIS DATA

[ ← Previous Day ]
WEATHER ALMANAC - MAY 4, 2014
[ Next Day → ]
[ °C ]   °F
Weather ElementAverageHighLow
Temperature40.1 °F51.1 °F (10:56 am)32 °F (10:56 pm)
Dewpoint29.8 °F34 °F (1:56 pm)26.1 °F (10:56 pm)
Humidity67.8 %79 % (10:56 pm)41 % (10:56 am)
Barometer30.05 in30.13 in (11:56 pm)29.87 in (1:56 am)
Wind Speed6.5 mph11.5 mph (4:56 pm)
Wind Gust20.7 mph (4:56 am)
Weather ElementAverage
Wind DirectionSSW (193.5 °)

Weather ElementTotal
Precipitation---
Heating Degree Days23.5 (Base 65)
Averaged from 23 records on May 4, 2014
WEATHER CONDITIONS BREAKOUT
WIND DIRECTION BREAKOUT
WEATHER BY HOUR - MAY 4, 2014
[ °C ]   °F
Local TimeTemperatureDewpointHumidityBarometerVisibilityWind DirectionWind SpeedGust SpeedPrecipitationEventsConditions
1:56 AM37.0 °F30.0 °F76 %29.87 inNNW (330°)8.1 mph
2:56 AM37.9 °F30.0 °F73 %29.88 inNNW (330°)9.2 mph18.4 mph
3:56 AM37.9 °F30.0 °F73 %29.91 inNorth
4:56 AM37.0 °F28.9 °F73 %29.94 inNW (310°)8.1 mph20.7 mph
5:56 AM37.0 °F28.9 °F73 %29.98 inSSW (210°)8.1 mph
6:56 AM37.0 °F30.0 °F76 %30.01 inCalm
7:56 AM42.1 °F30.9 °F65 %30.03 inNW (320°)10.4 mph17.3 mph
8:56 AM44.1 °F30.0 °F58 %30.04 inNNW (330°)9.2 mph18.4 mph
9:56 AM46.9 °F30.0 °F52 %30.05 inCalm
10:56 AM51.1 °F28.0 °F41 %30.06 inNorth
11:56 AM48.9 °F27.0 °F43 %30.08 inCalm
12:56 PM39.9 °F32.0 °F73 %30.09 inSouth (170°)9.2 mph
1:56 PM43.0 °F34.0 °F71 %30.09 inWest (260°)10.4 mph
2:56 PM43.0 °F33.1 °F68 %30.10 inWest (260°)9.2 mph
3:56 PM41.0 °F32.0 °F70 %30.10 inWSW (250°)10.4 mph
4:56 PM41.0 °F33.1 °F73 %30.10 inWSW (240°)11.5 mph
5:56 PM42.1 °F32.0 °F67 %30.09 inWSW (250°)9.2 mph
6:56 PM41.0 °F30.9 °F67 %30.09 inWSW (250°)8.1 mph
7:56 PM39.9 °F27.0 °F60 %30.10 inWest (270°)4.6 mph
8:56 PM36.0 °F28.0 °F73 %30.10 inNNW (330°)4.6 mph
9:56 PM33.1 °F27.0 °F78 %30.12 inVariable3.5 mph
10:56 PM32.0 °F26.1 °F79 %30.11 inNNW (340°)3.5 mph
11:56 PM33.1 °F27.0 °F78 %30.13 inCalm
Hourly data recorded from KGNA, located miles away from Grand Marais, Minnesota







STORIES FROM OUR PARTNERS